Flag for Uruguay Weather past 2 weeks in Minas, Uruguay

Now
64 °F

Partly sunny.


Feels Like: 64 °F
Forecast: 47 / 70 °F
Wind: 9 mph from South

Location: Capitan Corbeta

Current Time: Aug 31, 2015 at 1:24:27 PM

Latest Report: Aug 31, 2015 at 1:00 PM


Visibility: N/A

Pressure: 29.92 "Hg

Humidity: 73%

Dew point: 55 °F

Location of MinasLocation

Historic Weather in Minas — Graph

°F

Minas temperature yesterday

Maximum temperature yesterday: 77 °F (at 1:00 PM)
Minimum temperature yesterday: 52 °F (at 6:00 AM)
Average temperature yesterday: 62 °F

Past Weeks' High & Low Weather Summary

 TemperatureHumidityPressure
High79 °F (Aug 29, 1:00 PM)100% (Aug 19, 7:00 AM)30.33 "Hg (Aug 19, 7:00 AM)
Low46 °F (Aug 24, 1:00 AM)26% (Aug 30, 1:00 PM)29.65 "Hg (Aug 22, 3:00 PM)
Average57 °F76%29.99 "Hg
* Reported Aug 16 12:00 Noon — Aug 31 12:00 Noon, Minas, Weather by CustomWeather, © 2015

Note: Actual official high and low records may vary slightly from our data, if they occured in-between our weather recording intervals... More about our weather records

Advertising

Minas weather history for previous 24 hours

 ConditionsComfort  
Time TempWeatherWind HumidityBarometerVisibility
12:00 PM
Mon, Aug 31
66 °FPartly sunny.3 mph73%29.92 "HgN/A
11:00 AM63 °FPartly sunny.12 mph77%29.89 "HgN/A
10:00 AM63 °FPartly sunny.12 mph77%29.89 "HgN/A
9:00 AM59 °FOvercast.12 mph82%29.89 "HgN/A
8:00 AM57 °FPartly sunny.10 mph82%29.89 "HgN/A
7:00 AM57 °FPartly sunny.17 mph82%29.89 "HgN/A
6:00 AM57 °FOvercast.15 mph82%29.89 "HgN/A
5:00 AM61 °FClear.12 mph83%29.86 "Hg10 mi
4:00 AM61 °FClear.12 mph83%29.86 "Hg10 mi
3:00 AM61 °FClear.12 mph83%29.89 "Hg10 mi
2:00 AM61 °FClear.12 mph77%29.92 "Hg10 mi
1:00 AM61 °FClear.6 mph72%29.92 "Hg10 mi
12:00 AM61 °FClear.8 mph68%29.92 "Hg10 mi
11:00 PM
Sun, Aug 30
61 °FClear.14 mph72%29.92 "Hg10 mi
10:00 PM61 °FClear.8 mph68%29.95 "Hg10 mi
9:00 PM63 °FClear.16 mph68%29.92 "Hg10 mi
8:00 PM63 °FClear.14 mph64%29.92 "Hg10 mi
6:00 PM64 °FClear.12 mph64%29.95 "Hg10 mi
5:00 PM66 °FSunny.12 mph60%29.92 "Hg10 mi
4:00 PM72 °FSunny.14 mph50%29.92 "Hg10 mi
3:00 PM73 °FSunny.13 mph44%29.92 "Hg10 mi
2:00 PM70 °FSunny.17 mph57%29.92 "Hg10 mi
1:00 PM77 °FSunny.13 mph26%29.95 "Hg10 mi
Weather by CustomWeather, © 2015

See weather overviewHow to use our weather pages